QPF
0.00 0.00 0.00 0.01 0.00 0.01 0.01 0.01 0.02 0.01 0.00 0.01 0.02 0.00 0.00 0.00 0.03 0.00 0.00 0.00 0.01 0.01 0.01 0.01 0.00 0.00 0.00 0.00 0.03 0.00 0.00 0.04 0.00 0.00 0.01 0.00 0.00 0.01 0.00 0.00 0.00 0.00
0.00 0.00 0.00 0.00 0.00 0.00 0.00 0.00 0.00 0.00 0.00 0.01 0.01 0.00 0.01 0.01 0.00 0.00 0.00 0.00 0.00 0.01 0.04 0.00 0.00 0.00 0.00 0.01 0.00 0.00 0.01 0.01 0.00 0.00 0.00 0.00 0.00 0.00 0.00 0.00 0.00 0.00
0.00 0.00 0.00 0.00 0.00 0.00 0.00 0.01 0.00 0.00 0.00 0.01 0.01 0.01 0.01 0.02 0.00 0.01 0.00 0.02 0.00 0.00 0.00 0.01 0.00 0.00 0.00 0.01 0.01 0.00 0.00 0.00 0.00 0.00 0.00 0.00 0.00 0.01 0.01 0.00 0.00 0.00
0.00 0.00 0.00 0.00 0.00 0.00 0.00 0.01 0.00 0.00 0.01 0.02 0.01 0.01 0.02 0.01 0.01 0.02 0.01 0.02 0.00 0.00 0.00 0.00 0.00 0.00 0.00 0.00 0.01 0.00 0.00 0.00 0.00 0.00 0.00 0.00 0.00 0.00 0.00 0.00 0.02 0.00
0.00 0.00 0.00 0.00 0.00 0.01 0.01 0.02 0.02 0.00 0.00 0.01 0.02 0.01 0.00 0.03 0.01 0.01 0.01 0.00 0.00 0.00 0.01 0.00 0.00 0.00 0.00 0.00 0.01 0.00 0.00 0.00 0.00 0.00 0.00 0.00 0.00 0.00 0.00 0.00 0.01 0.01
0.00 0.00 0.00 0.00 0.00 0.01 0.01 0.02 0.01 0.01 0.01 0.00 0.00 0.00 0.00 0.01 0.00 0.02 0.01 0.04 0.02 0.00 0.01 0.03 0.03 0.01 0.02 0.00 0.00 0.00 0.00 0.00 0.00 0.00 0.02 0.01 0.00 0.00 0.02 0.00 0.00 0.00
0.00 0.00 0.00 0.00 0.00 0.00 0.00 0.01 0.01 0.01 0.01 0.00 0.00 0.00 0.01 0.00 0.01 0.01 0.02 0.01 0.01 0.00 0.02 0.03 0.00 0.01 0.01 0.02 0.00 0.00 0.01 0.00 0.00 0.00 0.01 0.01 0.00 0.00 0.00 0.00 0.00 0.01
0.00 0.00 0.00 0.00 0.00 0.00 0.00 0.00 0.00 0.00 0.00 0.00 0.00 0.01 0.00 0.00 0.00 0.00 0.02 0.00 0.01 0.01 0.02 0.02 0.01 0.00 0.00 0.02 0.00 0.00 0.00 0.00 0.02 0.00 0.00 0.00 0.00 0.00 0.00 0.00 0.00 0.00
0.00 0.00 0.00 0.00 0.00 0.00 0.00 0.00 0.00 0.01 0.00 0.00 0.00 0.00 0.00 0.00 0.00 0.00 0.01 0.00 0.02 0.01 0.00 0.01 0.00 0.00 0.00 0.01 0.01 0.00 0.00 0.00 0.01 0.02 0.00 0.00 0.00 0.00 0.00 0.02 0.00 0.00
0.00 0.00 0.00 0.00 0.00 0.00 0.00 0.00 0.00 0.00 0.01 0.03 0.02 0.01 0.01 0.01 0.00 0.00 0.02 0.02 0.01 0.01 0.00 0.00 0.00 0.00 0.00 0.00 0.00 0.00 0.00 0.02 0.03 0.03 0.02 0.02 0.00 0.00 0.00 0.00 0.00 0.00
0.00 0.00 0.00 0.00 0.00 0.00 0.00 0.00 0.00 0.00 0.00 0.00 0.03 0.02 0.02 0.01 0.00 0.00 0.00 0.01 0.03 0.01 0.02 0.00 0.01 0.02 0.01 0.00 0.01 0.00 0.01 0.01 0.00 0.01 0.03 0.00 0.01 0.00 0.00 0.00 0.00 0.00
0.00 0.00 0.00 0.00 0.00 0.00 0.00 0.00 0.00 0.00 0.00 0.00 0.00 0.00 0.01 0.00 0.01 0.01 0.00 0.01 0.00 0.01 0.01 0.00 0.01 0.01 0.00 0.00 0.02 0.01 0.01 0.00 0.01 0.02 0.01 0.01 0.00 0.00 0.00 0.00 0.00 0.00
0.01 0.00 0.00 0.00 0.00 0.00 0.00 0.00 0.00 0.00 0.00 0.00 0.00 0.00 0.01 0.02 0.02 0.01 0.01 0.01 0.02 0.00 0.01 0.01 0.01 0.00 0.01 0.01 0.01 0.02 0.02 0.01 0.01 0.02 0.01 0.01 0.02 0.04 0.03 0.00 0.00 0.00
0.01 0.00 0.00 0.00 0.00 0.00 0.00 0.00 0.00 0.00 0.00 0.00 0.00 0.01 0.01 0.01 0.02 0.01 0.01 0.01 0.02 0.03 0.01 0.00 0.01 0.02 0.01 0.02 0.01 0.00 0.01 0.01 0.02 0.01 0.09 0.03 0.03 0.02 0.01 0.02 0.01 0.02
0.01 0.00 0.00 0.00 0.00 0.00 0.00 0.00 0.00 0.00 0.00 0.00 0.00 0.01 0.01 0.00 0.02 0.01 0.01 0.02 0.01 0.00 0.00 0.02 0.03 0.04 0.05 0.01 0.00 0.00 0.02 0.09 0.02 0.01 0.02 0.03 0.03 0.03 0.01 0.00 0.02 0.02
0.01 0.01 0.02 0.01 0.00 0.00 0.00 0.00 0.00 0.01 0.00 0.00 0.00 0.00 0.01 0.02 0.01 0.00 0.01 0.01 0.01 0.00 0.00 0.02 0.02 0.02 0.00 0.00 0.00 0.01 0.00 0.03 0.00 0.00 0.03 0.02 0.00 0.01 0.02 0.01 0.01 0.01
0.00 0.00 0.00 0.00 0.02 0.00 0.02 0.00 0.01 0.01 0.00 0.01 0.02 0.00 0.01 0.01 0.00 0.08 0.02 0.01 0.00 0.00 0.00 0.03 0.03 0.01 0.00 0.00 0.00 0.00 0.01 0.01 0.00 0.00 0.00 0.00 0.00 0.00 0.00 0.00 0.01 0.01
0.01 0.01 0.03 0.10 0.04 0.01 0.01 0.01 0.06 0.04 0.05 0.03 0.02 0.01 0.01 0.02 0.01 0.01 0.03 0.02 0.04 0.00 0.00 0.00 0.01 0.00 0.00 0.00 0.00 0.00 0.00 0.00 0.01 0.00 0.01 0.01 0.00 0.00 0.00 0.00 0.00 0.00
0.00 0.00 0.00 0.29 0.71 0.13 0.03 0.05 0.00 0.01 0.00 0.02 0.01 0.05 0.16 0.02 0.00 0.00 0.00 0.03 0.01 0.00 0.00 0.00 0.00 0.00 0.00 0.00 0.00 0.00 0.00 0.00 0.00 0.00 0.00 0.00 0.00 0.00 0.00 0.00 0.00 0.00
0.01 0.01 0.01 0.05 0.20 0.37 0.23 0.13 0.01 0.02 0.06 0.10 0.12 0.05 0.02 0.00 0.00 0.00 0.01 0.02 0.00 0.00 0.00 0.02 0.01 0.00 0.00 0.00 0.00 0.00 0.00 0.00 0.00 0.00 0.00 0.00 0.00 0.00 0.00 0.00 0.00 0.00
0.08 0.04 0.01 0.02 0.05 0.02 0.02 0.00 0.00 0.01 0.05 0.07 0.08 0.05 0.00 0.01 0.02 0.04 0.03 0.02 0.02 0.01 0.00 0.01 0.01 0.00 0.00 0.00 0.00 0.00 0.00 0.00 0.00 0.00 0.00 0.00 0.00 0.00 0.00 0.00 0.00 0.00
0.11 0.11 0.10 0.35 0.07 0.07 0.04 0.05 0.13 0.13 0.17 0.23 0.07 0.05 0.01 0.01 0.01 0.01 0.03 0.06 0.09 0.09 0.04 0.01 0.00 0.00 0.00 0.00 0.00 0.00 0.00 0.00 0.00 0.00 0.00 0.00 0.00 0.00 0.00 0.01 0.00 0.00
0.07 0.11 0.18 0.36 0.11 0.09 0.08 0.08 0.10 0.19 0.27 0.34 0.15 0.13 0.11 0.05 0.03 0.01 0.01 0.03 0.06 0.08 0.14 0.16 0.05 0.09 0.00 0.00 0.00 0.00 0.00 0.00 0.00 0.00 0.00 0.00 0.00 0.00 0.00 0.00 0.00 0.00
0.08 0.07 0.17 0.23 0.02 0.04 0.08 0.18 0.20 0.32 0.16 0.25 0.14 0.12 0.14 0.10 0.07 0.17 0.21 0.03 0.03 0.08 0.15 0.22 0.09 0.14 0.10 0.05 0.02 0.00 0.00 0.00 0.01 0.02 0.02 0.00 0.00 0.00 0.00 0.00 0.01 0.00
0.02 0.02 0.06 0.04 0.02 0.04 0.08 0.05 0.05 0.06 0.14 0.17 0.50 0.29 0.17 0.37 0.22 0.26 0.26 0.34 0.32 0.19 0.15 0.22 0.20 0.13 0.11 0.11 0.07 0.03 0.00 0.00 0.01 0.01 0.00 0.00 0.00 0.00 0.00 0.01 0.24 0.12
0.02 0.00 0.01 0.01 0.01 0.00 0.01 0.00 0.00 0.01 0.01 0.02 0.05 0.03 0.04 0.22 0.16 0.31 0.36 0.47 0.71 0.44 0.36 0.24 0.30 0.31 0.23 0.16 0.09 0.04 0.01 0.00 0.02 0.08 0.01 0.00 0.00 0.00 0.00 0.00 0.00 0.01
MSLP
1016.23 1016.35 1016.67 1016.95 1017.11 1017.19 1017.35 1017.59 1017.55 1017.87 1018.07 1017.99 1018.23 1018.19 1018.31 1018.31 1018.23 1018.39 1018.55 1018.55 1018.67 1018.79 1018.87 1018.87 1018.87 1018.99 1018.99 1019.03 1019.15 1019.23 1019.39 1019.51 1019.51 1019.47 1019.47 1019.39 1019.51 1019.55 1019.59 1019.47 1019.31 1019.23
1016.15 1016.23 1016.39 1016.63 1016.87 1016.91 1017.07 1017.07 1017.43 1017.63 1017.91 1017.91 1017.79 1017.95 1017.91 1017.99 1018.19 1018.23 1018.47 1018.63 1018.59 1018.67 1018.75 1018.79 1018.83 1018.87 1018.95 1018.99 1019.07 1019.19 1019.39 1019.39 1019.59 1019.03 1019.51 1019.55 1019.47 1019.43 1019.51 1019.39 1019.35 1019.11
1016.07 1016.27 1016.35 1016.63 1016.79 1016.87 1016.91 1016.87 1016.99 1017.19 1017.47 1017.55 1017.59 1017.83 1017.87 1017.75 1017.95 1017.99 1018.15 1018.43 1018.59 1018.51 1018.67 1018.67 1018.75 1018.79 1018.83 1018.95 1019.07 1019.19 1019.35 1019.43 1019.51 1019.15 1019.39 1019.59 1019.51 1019.59 1019.39 1019.23 1019.15 1019.15
1015.95 1015.99 1016.11 1016.19 1016.23 1016.51 1016.51 1016.79 1016.95 1017.11 1017.15 1017.39 1017.67 1017.55 1017.59 1017.59 1017.79 1017.95 1018.03 1018.23 1018.43 1018.47 1018.51 1018.59 1018.67 1018.67 1018.79 1018.91 1019.11 1019.23 1019.15 1019.23 1019.15 1019.07 1019.43 1019.43 1019.43 1019.43 1019.39 1019.19 1019.15 1019.11
1015.75 1015.87 1015.83 1015.91 1015.87 1016.07 1016.31 1016.63 1016.87 1016.99 1017.15 1017.27 1017.23 1017.35 1017.59 1017.75 1017.95 1017.95 1018.07 1018.23 1018.27 1018.43 1018.47 1018.55 1018.55 1018.71 1018.71 1018.83 1018.99 1019.27 1019.15 1019.31 1019.07 1019.15 1019.47 1019.63 1019.43 1019.43 1019.27 1019.07 1019.19 1019.35
1015.47 1015.59 1015.67 1015.79 1015.87 1016.23 1016.47 1016.75 1016.71 1016.79 1016.91 1017.19 1017.35 1017.19 1017.43 1017.63 1017.79 1017.87 1018.03 1018.19 1018.19 1018.31 1018.43 1018.43 1018.51 1018.55 1018.67 1018.79 1018.91 1019.11 1019.03 1019.19 1018.99 1019.11 1019.51 1019.67 1019.55 1019.15 1018.99 1018.91 1019.07 1019.35
1015.47 1015.55 1015.67 1015.59 1015.71 1015.91 1016.31 1016.47 1016.59 1016.63 1016.59 1016.63 1016.83 1017.19 1017.19 1017.51 1017.75 1017.83 1017.91 1017.95 1017.95 1018.15 1018.23 1018.39 1018.59 1018.55 1018.59 1018.67 1018.87 1019.03 1018.99 1018.95 1018.87 1019.11 1019.43 1019.43 1019.35 1019.31 1018.95 1018.95 1019.15 1019.35
1015.15 1015.23 1015.39 1015.47 1015.71 1015.71 1015.99 1016.19 1016.35 1016.47 1016.47 1016.59 1016.91 1016.91 1016.95 1017.23 1017.43 1017.51 1017.67 1017.79 1017.99 1017.99 1018.03 1018.19 1018.39 1018.43 1018.35 1018.51 1018.79 1018.91 1018.99 1018.79 1018.95 1019.15 1019.35 1019.39 1019.27 1019.39 1019.19 1018.91 1018.91 1019.19
1014.75 1015.03 1015.19 1015.39 1015.55 1015.59 1015.79 1015.79 1015.87 1016.07 1016.11 1016.63 1016.75 1016.79 1016.75 1016.95 1017.15 1017.23 1017.35 1017.63 1017.95 1017.87 1017.95 1018.15 1018.23 1018.27 1018.23 1018.35 1018.59 1018.75 1018.91 1018.79 1018.71 1019.03 1019.27 1019.43 1019.43 1019.39 1019.19 1018.95 1019.11 1019.15
1014.71 1014.71 1014.95 1015.15 1015.39 1015.39 1015.51 1015.51 1015.43 1015.63 1015.67 1016.15 1016.43 1016.43 1016.71 1016.83 1016.91 1017.11 1017.43 1017.75 1017.91 1017.99 1018.07 1018.07 1018.11 1018.19 1018.11 1018.15 1018.35 1018.47 1018.63 1018.75 1018.67 1018.75 1018.91 1018.99 1019.03 1018.99 1018.95 1018.99 1019.11 1019.15
1014.43 1014.51 1014.75 1014.91 1015.07 1015.07 1015.19 1015.15 1015.19 1015.27 1015.51 1015.99 1016.27 1016.43 1016.51 1016.75 1016.91 1016.91 1017.35 1017.67 1017.91 1017.99 1018.03 1018.07 1018.03 1018.03 1018.15 1018.07 1018.03 1018.11 1018.31 1018.35 1018.43 1018.63 1018.79 1018.87 1018.83 1018.71 1018.63 1018.71 1018.83 1018.91
1014.39 1014.35 1014.55 1014.63 1014.71 1014.75 1014.83 1014.83 1014.87 1015.03 1015.19 1015.55 1015.91 1016.43 1016.67 1016.71 1016.87 1016.95 1017.15 1017.51 1017.63 1017.67 1017.67 1017.79 1017.79 1017.87 1018.03 1018.03 1017.95 1017.87 1017.95 1018.07 1018.19 1018.39 1018.51 1018.63 1018.59 1018.51 1018.47 1018.47 1018.59 1018.67
1014.55 1014.47 1014.39 1014.43 1014.51 1014.55 1014.43 1014.51 1014.63 1014.71 1014.91 1015.27 1015.63 1016.11 1016.43 1016.67 1016.75 1016.95 1016.95 1017.15 1017.35 1017.47 1017.55 1017.63 1017.75 1017.75 1017.87 1017.91 1017.95 1017.95 1018.07 1018.15 1018.15 1018.23 1018.39 1018.43 1018.39 1018.39 1018.27 1018.19 1018.23 1018.23
1014.55 1014.47 1014.35 1014.27 1014.35 1014.51 1014.51 1014.43 1014.47 1014.51 1014.67 1014.79 1015.31 1015.83 1016.11 1016.35 1016.59 1016.71 1016.75 1016.83 1017.03 1017.15 1017.19 1017.27 1017.47 1017.63 1017.71 1017.83 1017.87 1017.95 1018.03 1018.15 1018.23 1018.31 1018.47 1018.59 1018.51 1018.31 1018.15 1018.11 1018.07 1017.99
1014.55 1014.31 1014.27 1014.31 1014.35 1014.55 1014.67 1014.75 1014.63 1014.71 1014.63 1014.79 1015.15 1015.43 1015.59 1015.83 1016.07 1016.31 1016.59 1016.75 1016.79 1016.99 1017.11 1017.07 1017.31 1017.55 1017.55 1017.67 1017.91 1017.91 1017.79 1018.03 1018.07 1018.19 1018.39 1018.67 1018.83 1018.47 1018.03 1017.91 1017.83 1017.79
1014.59 1014.63 1014.83 1014.75 1014.79 1014.79 1014.99 1015.03 1015.03 1014.99 1014.95 1014.99 1015.35 1015.39 1015.51 1015.71 1015.95 1016.11 1016.23 1016.51 1016.83 1016.95 1016.99 1017.11 1017.27 1017.19 1017.27 1017.43 1017.47 1017.63 1017.75 1017.91 1017.87 1018.03 1018.11 1018.27 1018.43 1018.43 1018.19 1017.91 1017.75 1017.63
1014.95 1015.03 1015.03 1015.27 1015.43 1015.55 1015.55 1015.67 1015.75 1015.75 1015.91 1016.07 1016.07 1016.11 1016.31 1016.15 1016.03 1016.75 1016.95 1016.83 1016.83 1016.95 1017.07 1017.19 1017.11 1016.91 1016.99 1017.23 1017.31 1017.35 1017.47 1017.71 1017.87 1017.99 1017.91 1017.99 1018.15 1018.31 1018.39 1018.11 1017.71 1017.43
1015.11 1015.27 1015.39 1015.67 1015.87 1016.11 1016.19 1016.11 1016.11 1016.19 1016.27 1016.23 1016.19 1016.23 1016.43 1016.71 1016.95 1017.15 1017.15 1017.59 1017.35 1016.91 1016.83 1016.91 1016.91 1016.79 1017.03 1017.19 1017.15 1017.19 1017.27 1017.43 1017.55 1017.67 1017.67 1017.75 1017.83 1017.91 1017.91 1017.91 1017.75 1017.51
1015.31 1015.55 1015.67 1016.03 1016.27 1016.47 1016.59 1016.67 1016.63 1016.63 1016.59 1016.55 1016.55 1016.43 1016.43 1016.75 1016.75 1016.63 1016.67 1016.79 1016.99 1016.95 1017.15 1016.83 1016.83 1016.91 1017.11 1017.23 1017.35 1017.11 1017.07 1017.19 1017.23 1017.23 1017.39 1017.39 1017.31 1017.47 1017.59 1017.55 1017.47 1017.55
1015.55 1015.63 1015.87 1016.19 1016.55 1016.35 1016.31 1016.51 1016.71 1016.79 1016.71 1016.51 1016.47 1016.59 1016.75 1016.83 1016.83 1016.91 1016.87 1016.87 1016.83 1016.95 1016.99 1017.31 1017.87 1017.99 1018.15 1017.95 1017.63 1017.35 1016.99 1017.03 1017.07 1017.11 1017.19 1017.27 1017.27 1017.15 1017.07 1017.11 1017.11 1017.39
1015.75 1015.79 1015.95 1016.19 1016.43 1016.47 1016.43 1016.51 1016.67 1016.71 1016.63 1016.55 1016.51 1016.67 1016.83 1016.95 1016.99 1017.03 1017.03 1017.11 1017.11 1017.19 1017.43 1017.51 1017.83 1017.99 1018.23 1018.11 1017.75 1017.75 1017.59 1017.23 1017.11 1017.11 1017.15 1017.19 1017.19 1017.11 1017.07 1017.03 1016.99 1017.07
1015.79 1015.87 1016.07 1016.27 1016.39 1016.51 1016.67 1016.83 1016.87 1016.95 1016.99 1016.71 1016.59 1016.55 1016.59 1016.67 1016.83 1016.99 1017.23 1017.27 1017.27 1017.31 1017.55 1017.67 1017.71 1017.59 1017.79 1017.95 1018.07 1017.79 1017.55 1017.35 1017.35 1017.55 1017.63 1017.55 1017.47 1017.35 1017.23 1017.31 1017.47 1017.75
1015.79 1016.03 1016.19 1016.19 1016.43 1016.71 1016.79 1016.83 1016.87 1016.79 1016.67 1016.51 1016.79 1016.79 1016.83 1016.87 1016.87 1016.91 1017.07 1017.23 1017.31 1017.35 1017.51 1017.75 1017.75 1017.67 1017.43 1017.71 1017.79 1017.63 1017.51 1017.67 1017.63 1017.59 1017.59 1017.63 1017.55 1017.39 1017.55 1017.75 1017.71 1017.71
1015.83 1015.87 1016.03 1016.11 1016.39 1016.67 1016.79 1016.71 1016.59 1016.55 1016.67 1016.59 1016.79 1016.87 1016.91 1016.83 1016.71 1016.87 1016.99 1017.11 1017.23 1017.47 1017.47 1017.79 1017.99 1018.27 1018.27 1018.07 1017.91 1017.71 1017.71 1017.79 1017.75 1017.83 1017.83 1017.87 1017.87 1017.75 1017.75 1017.87 1017.83 1017.63
1016.07 1016.03 1016.07 1016.15 1016.35 1016.47 1016.43 1016.43 1016.31 1016.27 1016.31 1016.55 1016.83 1016.87 1016.75 1016.71 1016.83 1016.99 1017.15 1017.27 1017.27 1017.43 1017.43 1017.75 1018.11 1018.31 1018.35 1018.51 1018.27 1017.95 1017.75 1017.67 1017.75 1017.95 1018.15 1018.11 1018.07 1018.15 1017.95 1017.95 1017.99 1017.83
1016.35 1016.27 1016.27 1016.35 1016.47 1016.43 1016.31 1016.19 1016.03 1016.03 1016.11 1016.31 1016.43 1016.51 1016.75 1016.87 1016.95 1017.03 1017.15 1017.27 1017.23 1017.31 1017.55 1017.95 1018.27 1018.43 1018.55 1018.91 1018.75 1018.11 1017.83 1017.75 1017.83 1018.31 1018.51 1018.31 1018.11 1018.31 1018.35 1018.03 1018.07 1018.03
Thickness
5803 5803 5802 5800 5799 5799 5798 5798 5797 5796 5794 5795 5795 5795 5796 5796 5796 5796 5794 5794 5794 5794 5794 5794 5794 5795 5795 5795 5795 5795 5794 5793 5793 5794 5795 5794 5795 5796 5795 5797 5798 5799
5804 5803 5803 5801 5800 5801 5800 5800 5799 5798 5796 5797 5798 5798 5798 5798 5797 5797 5796 5795 5795 5794 5794 5795 5794 5794 5794 5795 5795 5795 5794 5792 5793 5795 5795 5794 5795 5796 5796 5797 5798 5799
5804 5803 5803 5802 5802 5801 5802 5802 5802 5801 5800 5799 5800 5799 5799 5800 5799 5798 5798 5796 5796 5796 5795 5795 5795 5795 5795 5795 5794 5794 5794 5792 5793 5796 5795 5795 5796 5796 5796 5798 5799 5800
5803 5804 5804 5804 5804 5804 5803 5803 5802 5802 5802 5800 5801 5801 5801 5801 5800 5799 5799 5797 5797 5797 5797 5796 5796 5796 5795 5795 5795 5794 5795 5795 5795 5797 5795 5794 5796 5796 5797 5799 5798 5799
5803 5804 5805 5805 5806 5805 5804 5803 5802 5802 5802 5801 5802 5802 5801 5800 5799 5799 5798 5797 5798 5797 5797 5797 5797 5797 5796 5796 5795 5794 5795 5795 5797 5797 5794 5794 5795 5796 5797 5799 5798 5798
5803 5804 5805 5805 5806 5805 5802 5802 5802 5803 5802 5802 5802 5802 5801 5800 5799 5799 5798 5798 5799 5798 5797 5797 5798 5798 5797 5796 5795 5795 5795 5796 5797 5797 5794 5793 5795 5796 5798 5799 5797 5796
5803 5804 5805 5805 5805 5804 5803 5802 5802 5802 5803 5803 5803 5802 5802 5800 5799 5799 5799 5799 5800 5799 5798 5798 5798 5798 5798 5798 5796 5795 5796 5796 5797 5796 5794 5794 5795 5796 5798 5799 5797 5796
5804 5804 5804 5804 5804 5803 5803 5803 5802 5802 5803 5802 5802 5802 5803 5802 5800 5801 5801 5800 5799 5799 5799 5799 5798 5798 5799 5799 5797 5796 5796 5797 5797 5796 5794 5794 5795 5794 5796 5798 5798 5796
5804 5805 5804 5803 5803 5803 5803 5804 5803 5804 5803 5802 5802 5802 5803 5803 5802 5802 5801 5799 5798 5797 5799 5799 5798 5799 5800 5799 5798 5797 5796 5796 5797 5797 5794 5794 5794 5794 5796 5797 5797 5796
5803 5804 5804 5803 5803 5803 5803 5804 5805 5806 5805 5802 5802 5802 5802 5802 5802 5802 5800 5798 5797 5796 5797 5797 5798 5798 5798 5799 5799 5798 5797 5797 5797 5797 5795 5794 5795 5795 5797 5796 5796 5796
5802 5803 5803 5803 5803 5803 5804 5804 5805 5806 5805 5802 5801 5801 5801 5801 5801 5800 5799 5797 5796 5796 5796 5796 5797 5797 5797 5798 5799 5800 5799 5799 5798 5797 5796 5795 5796 5797 5798 5797 5796 5796
5801 5802 5802 5802 5803 5803 5804 5804 5805 5805 5805 5803 5801 5799 5798 5798 5799 5799 5798 5796 5795 5796 5796 5796 5796 5797 5797 5797 5798 5799 5800 5799 5799 5798 5797 5796 5797 5797 5798 5798 5797 5796
5798 5799 5801 5802 5803 5803 5804 5805 5805 5804 5805 5804 5802 5799 5798 5797 5797 5797 5796 5796 5795 5796 5796 5796 5796 5796 5796 5796 5796 5797 5797 5797 5798 5797 5796 5797 5797 5797 5798 5798 5799 5799
5796 5797 5799 5801 5802 5803 5803 5804 5804 5804 5805 5805 5802 5799 5799 5797 5797 5796 5795 5796 5796 5796 5796 5796 5795 5795 5795 5795 5795 5795 5795 5795 5795 5795 5795 5794 5793 5795 5798 5798 5799 5800
5794 5795 5797 5799 5800 5800 5800 5801 5802 5802 5803 5803 5800 5799 5799 5798 5797 5796 5795 5795 5795 5794 5795 5795 5794 5794 5794 5794 5793 5794 5794 5793 5794 5793 5793 5792 5791 5793 5797 5798 5798 5799
5790 5792 5793 5793 5794 5795 5795 5796 5797 5798 5799 5798 5797 5797 5797 5797 5797 5795 5795 5794 5793 5792 5793 5793 5793 5794 5794 5793 5793 5793 5793 5792 5792 5792 5792 5792 5791 5791 5794 5796 5798 5799
5787 5787 5787 5787 5787 5788 5789 5789 5790 5791 5791 5791 5791 5791 5790 5790 5790 5789 5788 5788 5789 5790 5789 5789 5791 5793 5793 5792 5792 5793 5792 5792 5790 5790 5791 5791 5791 5790 5790 5793 5795 5797
5782 5782 5782 5781 5781 5781 5781 5782 5784 5784 5785 5785 5787 5787 5786 5784 5785 5785 5784 5783 5784 5786 5786 5786 5788 5790 5790 5789 5789 5790 5790 5790 5790 5790 5791 5791 5791 5790 5790 5791 5792 5794
5777 5776 5776 5775 5775 5776 5776 5777 5777 5778 5780 5781 5782 5783 5783 5782 5782 5784 5783 5782 5782 5782 5782 5783 5784 5783 5783 5783 5784 5786 5788 5789 5789 5790 5790 5791 5792 5791 5791 5791 5791 5791
5771 5772 5771 5768 5769 5773 5774 5775 5775 5775 5776 5777 5778 5778 5779 5778 5778 5779 5779 5779 5779 5779 5777 5776 5776 5774 5775 5777 5779 5782 5783 5786 5788 5788 5788 5789 5790 5791 5791 5791 5791 5789
5766 5767 5767 5765 5766 5768 5770 5771 5770 5771 5772 5773 5775 5775 5774 5774 5774 5774 5774 5774 5774 5773 5772 5771 5772 5770 5770 5772 5775 5777 5779 5781 5784 5783 5783 5784 5785 5786 5787 5787 5788 5788
5764 5764 5763 5762 5762 5762 5762 5763 5763 5765 5767 5769 5771 5771 5771 5770 5770 5770 5769 5769 5769 5768 5768 5768 5768 5769 5768 5768 5770 5773 5774 5775 5776 5776 5776 5777 5779 5781 5782 5782 5784 5784
5760 5761 5761 5760 5759 5757 5756 5757 5759 5761 5763 5765 5765 5764 5765 5766 5767 5767 5766 5764 5764 5764 5764 5764 5763 5763 5765 5766 5766 5768 5769 5767 5767 5769 5771 5772 5774 5776 5777 5777 5778 5778
5757 5758 5759 5758 5757 5755 5753 5754 5757 5758 5759 5760 5759 5759 5760 5762 5764 5765 5763 5760 5760 5760 5760 5759 5757 5756 5758 5759 5761 5764 5764 5762 5762 5763 5765 5766 5768 5770 5772 5772 5773 5774
5752 5753 5754 5754 5753 5752 5754 5755 5756 5758 5758 5758 5757 5757 5758 5759 5761 5760 5758 5757 5757 5757 5756 5754 5752 5751 5751 5751 5753 5757 5759 5760 5760 5759 5759 5760 5762 5763 5765 5767 5768 5769
5746 5748 5748 5749 5749 5749 5752 5753 5754 5756 5757 5756 5756 5756 5755 5755 5755 5755 5755 5754 5754 5754 5752 5749 5747 5747 5746 5743 5745 5750 5753 5755 5756 5754 5753 5756 5756 5756 5759 5761 5762 5764